FW0579 Weather Reports


Display with metric or nautical units.
time (UTC)temp
F
wind
direction
speed
MPH
gust
MPH
rain 1hr
in
rain 24hr
in
rain mn
in
humidity
%
barometer
mb
20260508204513 80 218 6.0 12.0 0.00 0.00 0.00 48 1015.8
20260508203009 79 236 4.0 8.0 0.00 0.00 0.00 51 1015.9
20260508200009 76 15 5.0 10.0 0.00 0.00 0.00 53 1016.0
20260508194501 75 208 2.0 9.0 0.00 0.00 0.00 53 1016.1
20260508193103 74 263 8.0 11.0 0.00 0.00 0.00 54 1016.4
20260508190051 72 267 7.0 10.0 0.00 0.00 0.00 54 1016.7
20260508184549 71 245 6.0 9.0 0.00 0.00 0.00 54 1016.9
20260508183046 70 281 4.0 10.0 0.00 0.00 0.00 56 1017.0
20260508180039 67 272 3.0 9.0 0.00 0.00 0.00 61 1017.2
20260508174536 66 246 5.0 9.0 0.00 0.00 0.00 60 1017.3
20260508173033 65 249 4.0 13.0 0.00 0.00 0.00 63 1017.3
20260508170030 64 252 4.0 8.0 0.00 0.00 0.00 68 1017.3
20260508164525 63 254 1.0 8.0 0.00 0.00 0.00 70 1017.2
20260508163029 62 227 4.0 7.0 0.00 0.00 0.00 73 1017.3
20260508160019 59 286 3.0 6.0 0.00 0.00 0.00 79 1017.3
20260508154508 58 227 2.0 7.0 0.00 0.00 0.00 82 1017.3
20260508153003 57 273 3.0 7.0 0.00 0.00 0.00 84 1017.4
20260508150110 55 253 2.0 6.0 0.00 0.00 0.00 87 1017.2
20260508144555 54 252 1.0 7.0 0.00 0.00 0.00 88 1017.1
20260508143105 53 259 1.0 4.0 0.00 0.00 0.00 88 1017.1
20260508140049 52 279 0.0 0.0 0.00 0.00 0.00 88 1016.7
20260508134540 52 281 0.0 0.0 0.00 0.00 0.00 88 1016.5
20260508133037 52 281 0.0 0.0 0.00 0.00 0.00 88 1016.4
20260508131633 52 275 1.0 8.0 0.00 0.00 0.00 87 1016.4
20260508130034 52 277 1.0 4.0 0.00 0.00 0.00 87 1016.4
20260508124534 52 283 2.0 6.0 0.00 0.00 0.00 87 1016.3
20260508123034 52 253 2.0 9.0 0.00 0.00 0.00 87 1016.3
20260508120028 52 267 1.0 8.0 0.00 0.00 0.00 87 1016.2
20260508114527 52 269 1.0 8.0 0.00 0.00 0.00 87 1016.2
20260508113025 52 281 3.0 9.0 0.00 0.00 0.00 87 1016.2
20260508110021 53 270 0.0 0.0 0.00 0.00 0.00 86 1016.1
20260508104519 53 270 0.0 0.0 0.00 0.00 0.00 86 1016.0
20260508103020 53 270 0.0 0.0 0.00 0.00 0.00 86 1015.9
20260508101615 54 270 0.0 0.0 0.00 0.00 0.00 86 1015.8
20260508100022 54 270 0.0 0.0 0.00 0.00 0.00 86 1015.9
20260508094513 54 270 0.0 0.0 0.00 0.00 0.00 85 1016.0
20260508093010 54 270 0.0 0.0 0.00 0.00 0.00 85 1016.0
20260508090007 55 263 1.0 4.0 0.00 0.00 0.00 85 1015.8
20260508084506 55 255 0.0 5.0 0.00 0.00 0.00 85 1015.8
20260508083003 56 252 1.0 4.0 0.00 0.00 0.00 84 1015.9
20260508080011 57 252 1.0 3.0 0.00 0.00 0.00 83 1016.0
20260508074502 57 252 1.0 7.0 0.00 0.00 0.00 84 1016.0
20260508073101 57 265 1.0 4.0 0.00 0.00 0.00 83 1015.7
20260508071557 58 245 0.0 1.0 0.00 0.00 0.00 83 1015.6
20260508070057 58 245 0.0 2.0 0.00 0.00 0.00 83 1015.6
20260508064557 58 247 1.0 4.0 0.00 0.00 0.00 82 1015.5
20260508063052 59 247 3.0 7.0 0.00 0.00 0.00 82 1015.5
20260508061547 59 234 4.0 8.0 0.00 0.00 0.00 81 1015.2
20260508060044 60 238 4.0 10.0 0.00 0.00 0.00 80 1015.2
20260508054546 61 240 6.0 11.0 0.00 0.00 0.00 78 1015.2
20260508053041 61 238 4.0 9.0 0.00 0.00 0.00 77 1015.2
20260508051635 63 248 3.0 8.0 0.00 0.00 0.00 75 1015.2
20260508050048 63 257 2.0 7.0 0.00 0.00 0.00 74 1015.0
20260508044532 64 259 2.0 6.0 0.00 0.00 0.00 72 1015.0
20260508043030 65 265 1.0 6.0 0.00 0.00 0.00 70 1014.9
20260508041629 66 275 2.0 8.0 0.00 0.00 0.00 68 1014.8
20260508040040 67 264 3.0 8.0 0.00 0.00 0.00 66 1014.8
20260508034538 68 271 3.0 11.0 0.00 0.00 0.00 64 1014.6
20260508033025 70 260 3.0 8.0 0.00 0.00 0.00 63 1014.4
20260508031624 72 360 5.0 9.0 0.00 0.00 0.00 60 1014.3
20260508030023 73 270 6.0 11.0 0.00 0.00 0.00 59 1014.2
20260508024525 75 237 7.0 13.0 0.00 0.00 0.00 55 1014.0
20260508023019 78 238 5.0 8.0 0.00 0.00 0.00 56 1013.8
20260508021519 80 248 5.0 11.0 0.00 0.00 0.00 51 1013.8
20260508020019 81 269 5.0 13.0 0.00 0.00 0.00 51 1013.8
20260508014515 82 259 4.0 10.0 0.00 0.00 0.00 51 1013.9
20260508013014 83 252 6.0 10.0 0.00 0.00 0.00 49 1013.8
20260508011514 84 261 5.0 11.0 0.00 0.00 0.00 45 1014.0
20260508010014 84 248 4.0 10.0 0.00 0.00 0.00 43 1013.9
20260508004510 84 255 6.0 13.0 0.00 0.00 0.00 43 1013.9
20260508003009 85 240 4.0 8.0 0.00 0.00 0.00 44 1013.9
20260508001608 86 270 1.0 7.0 0.00 0.00 0.00 47 1013.9
20260508000008 86 287 2.0 10.0 0.00 0.00 0.00 47 1013.8
20260507234511 86 239 7.0 11.0 0.00 0.00 0.00 47 1014.1
20260507233013 86 234 2.0 10.0 0.00 0.00 0.00 47 1014.3
20260507231608 87 355 1.0 7.0 0.00 0.00 0.00 47 1014.4
20260507230009 86 238 2.0 8.0 0.00 0.00 0.00 47 1014.6
20260507224501 87 259 1.0 4.0 0.00 0.00 0.00 46 1015.0
20260507223113 86 258 2.0 7.0 0.00 0.00 0.00 48 1015.0
20260507221555 85 349 1.0 4.0 0.00 0.00 0.00 49 1015.3
20260507220054 85 246 3.0 8.0 0.00 0.00 0.00 48 1015.4
20260507214550 83 122 1.0 7.0 0.00 0.00 0.00 51 1015.7
20260507213049 83 253 2.0 9.0 0.00 0.00 0.00 51 1016.0
20260507211555 83 244 1.0 7.0 0.00 0.00 0.00 52 1016.3
20260507210104 82 284 2.0 7.0 0.00 0.00 0.00 51 1016.5